SCP
0 0 0 0 0 0 0 0 0 0 0 0 0 0 0 0 0 0 0 0 0 0 0 0 0 0 0 0 0 0 0 0 0 0 0 0 0 0
0 0 0 0 0 0 0 0 0 0 0 0 0 0 0 0 0 0 0 0 0 0 0 0 0 0 0 0 0 0 0 0 0 0 0 0 0 0
0 0 0 0 0 0 0 0 0 0 0 0 0 0 0 0 0 0 0 0 0 0 0 0 0 0 0 0 0 0 0 0 0 0 0 0 0 0
0 0 0 0 0 0 0 0 0 0 0 0 0 0 0 0 0 0 0 0 0 0 0 0 0 0 0 0 0 0 0 0 0 0 0 0 0 0
0 0 0 0 0 0 0 0 0 0 0 0 0 0 0 0 0 0 0 0 0 0 0 0 0 0 0 0 0 0 0 0 0 0 0 0 0 0
0 0 0 0 0 0 0 0 0 0 0 0 0 0 0 0 0 0 0 0 0 0 0 0 0 0 0 0 0 0 0 0 0 0 0 0 0 0
0 0 0 0 0 0 0 0 0 0 0 0 0 0 0 0 0 0 0 0 0 0 0 0 0 0 0 0 0 0 0 0 0 0 0 0 0 0
0 0 0 0 0 0 0 0 0 0 0 0 0 0 0 0 0 0 0 0 0 0 0 0 0 0 0 0 0 0 0 0 0 0 0 0 0 0
0 0 0 0 0 0 0 0 0 0 0 0 0 0 0 0 0 0 0 0 0 0 0 0 0 0 0 0 0 0 0 0 0 0 0 0 0 0
0 0 0 0 0 0 0 0 0 0 0 0 0 0 0 0 0 0 0 0 0 0 0 0 0 0 0 0 0 0 0 0 0 0 0 0 0 0
0 0 0 0 0 0 0 0 0 0 0 0 0 0 0 0 0 0 0 0 0 0 0 0 0 0 0 0 0 0 0 0 0 0 0 0 0 0
0 0 0 0 0 0 0 0 0 0 0 0 0 0 0 0 0 0 0 0 0 0 0 0 0 0 0 0 0 0 0 0 0 0 0 0 0 0
0 0 0 0 0 0 0 0 0 0 0 0 0 0 0 0 0 0 0 0 0 0 0 0 0 0 0 0 0 0 0 0 0 0 0 0 0 0
0 0 0 0 0 0 0 0 0 0 0 0 0 0 0 0 0 0 0 0 0 0 0 0 0 0 0 0 0 0 0 0 0 0 0 0 0 0
0 0 0 0 0 0 0 0 0 0 0 0 0 0 0 0 0 0 0 0 0 0 0 0 0 0 0 0 0 0 0 0 0 0 0 0 0 0
0 0 0 0 0 0 0 0 0 0 0 0 0 0 0 0 0 0 0 0 0 0 0 0 0 0 0 0 0 0 0 0 0 0 0 0 0 0
0 0 0 0 0 0 0 0 0 0 0 0 0 0 0 0 0 0 0 0 0 0 0 0 0 0 0 0 0 0 0 0 0 0 0 0 0 0
0 0 0 0 0 0 0 0 0 0 0 0 0 0 0 0 0 0 0 0 0 0 0 0 0 0 0 0 0 0 0 0 0 0 0 0 0 0
0 0 0 0 0 0 0 0 0 0 0 0 0 0 0 0 0 0 0 0 0 0 0 0 0 0 0 0 0 0 0 0 0 0 0 0 0 0
0 0 0 0 0 0 0 0 0 0 0 0 0 0 0 0 0 0 0 0 0 0 0 0 0 0 0 0 0 0 0 0 0 0 0 0 0 0
0 0 0 0 0 0 0 0 0 0 0 0 0 0 0 0 0 0 0 0 0 0 0 0 0 0 0 0 0 0 0 0 0 0 0 0 0 0
0 0 0 0 0 0 0 0 0 0 0 0 0 0 0 0 0 0 0 0 0 0 0 0 0 0 0 0 0 0 0 0 0 0 0 0 0 0
0 0 0 0 0 0 0 0 0 0 0 0 0 0 0 0 0 0 0 0 0 0 0 0 0 0 0 0 0 0 0 0 0 0 0 0 0 0
Wind_Speed
3 3 3 2 2 2 2 3 4 4 4 2 2 2 2 3 4 4 5 6 8 9 9 10 10 10 10 11 11 11 12 12 12 13 14 14 15 15
2 2 2 2 2 2 2 3 4 4 5 2 3 3 3 3 4 5 5 6 7 8 9 9 9 9 10 10 11 11 12 12 13 13 14 14 15 15
2 3 3 2 2 2 2 3 3 4 5 4 3 3 4 5 4 4 5 5 4 7 9 9 9 9 9 10 10 11 11 11 12 13 13 14 14 15
4 3 3 3 3 3 2 3 3 4 4 5 3 3 5 5 5 5 5 4 5 6 8 8 8 9 9 10 10 10 10 11 11 12 13 14 14 15
4 4 4 4 4 3 3 3 3 3 4 4 4 3 3 3 5 5 5 5 5 5 6 7 8 9 9 9 9 9 10 10 11 12 12 13 14 15
3 3 4 4 4 4 3 3 3 3 3 4 3 3 3 3 4 4 4 4 5 5 5 6 7 8 8 8 9 9 10 10 11 12 13 13 14 15
3 3 3 3 4 3 3 3 3 3 3 3 3 3 3 3 3 3 5 5 5 4 5 5 5 5 5 6 7 9 10 11 11 12 13 13 14 15
3 3 2 3 3 3 4 4 5 4 4 4 4 4 4 4 3 4 4 5 4 3 6 6 5 5 5 5 7 10 10 11 12 12 13 13 14 15
3 3 2 2 3 3 3 4 4 5 6 5 6 5 4 4 4 5 5 5 6 5 6 6 5 5 5 5 9 9 10 11 12 13 13 13 14 15
2 2 2 2 2 3 3 3 3 3 4 4 4 4 3 3 4 4 5 5 5 4 4 5 5 6 6 6 7 9 10 11 12 12 13 14 15 16
1 2 2 2 2 3 3 3 3 3 3 4 5 4 4 4 4 2 3 3 4 4 3 4 5 6 6 5 5 8 9 11 12 12 13 14 15 15
1 1 2 3 3 3 3 3 3 3 3 2 3 3 3 2 3 3 3 3 3 3 2 3 4 5 5 4 5 6 6 9 12 12 13 13 14 10
1 1 1 3 3 3 3 3 3 3 2 2 2 3 3 3 3 3 3 3 4 4 3 3 4 4 4 6 6 6 6 7 7 8 10 12 13 11
1 2 2 3 3 3 3 2 3 2 1 1 2 2 3 3 3 4 4 4 4 5 5 5 4 5 5 6 6 6 6 6 7 7 7 10 11 13
1 2 3 3 3 2 1 2 2 1 1 2 2 2 3 3 3 3 3 3 3 4 4 5 5 5 5 6 6 6 7 7 6 6 7 8 8 8
1 2 2 1 1 1 1 1 1 1 2 2 2 2 3 3 3 3 3 3 3 3 4 5 5 5 5 6 6 7 6 6 6 7 8 8 7 7
1 1 1 1 1 1 1 1 1 1 1 1 2 2 2 3 3 3 3 3 4 4 5 4 4 4 6 6 6 6 6 6 6 7 8 8 8 7
1 1 1 1 1 1 1 1 1 2 2 2 2 2 2 3 3 3 3 3 4 4 5 5 5 5 4 4 5 6 6 6 7 8 7 8 8 7
2 2 2 2 2 2 2 2 2 2 2 2 2 2 2 3 3 3 3 3 4 4 5 5 5 5 6 6 4 3 6 7 8 7 7 7 9 9
2 2 2 2 2 2 2 2 2 2 2 2 2 3 3 3 3 3 3 4 4 5 5 4 4 5 5 6 6 7 8 8 7 8 8 8 8 10
2 2 2 2 2 3 2 2 3 3 3 3 3 3 3 3 3 3 4 5 5 5 5 5 5 7 6 5 6 6 6 7 9 8 8 8 7 7
2 3 3 3 3 3 3 3 3 3 3 3 3 3 3 3 4 4 4 4 4 5 5 5 5 5 5 5 6 7 8 8 8 11 11 9 6 6
3 3 3 3 3 3 3 3 4 3 3 3 3 3 3 3 3 4 4 4 4 5 5 5 5 5 5 5 6 7 9 9 7 7 6 9 11 13
Wind_Direction
206 213 217 219 225 234 242 249 256 266 264 252 257 277 305 304 314 300 303 311 310 311 312 312 311 310 309 309 312 312 313 313 313 311 309 307 306 307
206 214 216 218 222 228 230 243 254 259 267 274 273 291 299 297 304 299 303 309 305 310 312 314 316 315 314 316 315 314 314 314 313 313 311 310 310 309
207 221 227 226 225 232 235 238 245 254 262 277 283 290 294 295 297 302 303 302 306 314 312 313 316 315 318 319 319 319 319 318 317 316 314 314 313 312
211 217 224 228 231 237 242 244 244 249 258 271 277 286 291 294 300 304 307 305 304 314 312 310 313 316 317 317 319 319 321 321 320 318 317 316 315 314
219 221 224 226 233 237 245 250 249 252 257 265 274 285 291 294 302 302 306 306 305 308 304 303 311 314 315 316 319 321 322 324 324 323 322 320 317 316
226 230 236 236 241 243 246 253 256 253 256 264 271 279 291 299 296 301 305 307 307 309 308 309 309 308 311 316 319 322 324 324 323 324 324 322 319 317
229 237 246 259 268 263 260 260 254 250 257 264 269 278 283 292 295 305 302 307 306 310 314 311 310 307 312 313 317 324 324 325 325 324 324 323 321 319
227 237 235 238 257 267 276 280 277 262 257 262 266 267 276 285 299 297 302 306 303 324 316 308 308 306 312 312 321 322 321 324 325 325 325 325 323 321
224 234 241 246 262 264 267 272 280 286 278 272 265 268 273 277 283 285 287 296 299 310 309 299 308 305 312 311 316 317 321 323 324 325 326 325 324 323
242 249 252 264 280 290 282 279 287 289 291 287 278 280 285 284 277 285 293 301 301 300 306 296 307 308 312 304 306 315 321 323 323 325 326 326 325 321
269 270 272 273 283 288 279 278 297 315 339 334 331 320 309 299 293 279 280 287 302 305 313 297 305 313 305 295 304 314 318 322 323 325 326 326 325 321
274 274 274 286 285 285 282 274 280 301 314 332 339 337 323 314 301 281 274 276 297 295 313 312 307 320 307 297 313 318 316 319 321 322 322 323 325 320
261 278 279 280 289 292 296 291 293 306 301 311 322 330 333 334 334 331 318 295 286 283 295 308 297 301 291 298 304 309 314 318 319 317 317 321 322 321
271 284 299 302 298 299 297 310 317 313 303 306 313 322 330 333 336 336 332 320 304 290 289 290 282 286 293 295 297 306 312 313 314 313 315 319 317 315
300 300 302 305 303 294 292 311 317 300 297 300 310 320 326 325 324 327 329 324 315 307 298 294 287 284 283 285 292 300 308 308 307 312 315 315 313 313
309 309 299 304 306 298 311 330 323 311 306 299 313 319 317 315 316 321 320 322 316 313 316 312 303 292 285 284 286 291 298 297 304 310 311 308 306 304
303 304 307 304 305 311 319 325 323 313 309 306 303 309 312 315 319 324 318 314 306 308 316 320 315 301 287 283 285 287 294 300 304 311 313 308 306 306
263 253 261 267 276 287 293 299 300 297 301 302 297 297 299 305 312 315 312 312 311 310 312 315 317 313 298 273 255 282 296 304 310 310 307 302 302 307
249 250 257 264 268 268 271 278 287 290 290 283 281 285 292 298 301 305 307 307 306 307 310 313 316 317 314 314 296 268 299 306 307 304 303 301 299 304
257 256 260 263 267 268 268 273 278 278 274 276 276 277 282 289 293 296 297 298 301 304 307 308 312 315 310 306 301 298 296 297 302 305 307 303 296 295
264 265 264 263 264 266 263 261 263 265 268 272 273 273 276 280 284 289 292 296 299 299 303 307 311 312 301 290 287 293 300 300 299 298 304 305 306 308
269 270 269 265 262 262 258 254 257 259 261 264 268 271 274 275 278 282 287 293 297 298 301 304 308 306 299 295 299 302 307 311 306 297 288 283 293 304
268 270 269 265 260 260 256 254 256 259 260 264 268 270 274 275 279 282 287 290 295 299 301 305 308 306 303 300 302 304 308 313 314 314 306 301 292 286